This is the latest recevied weather packets stored in our database for station/object WK7G. If no packets are shown the sender has not sent any weather packets the latest 10 day(s).
| Time | Temp. | Humidity | Pressure | Rain* | Wind** | Luminosity | Snow |
|---|---|---|---|---|---|---|---|
| 1777607649 | 2.78° C | 59% | 1013.4 hPa | 0 mm | - | 0 W/m² | - |
| 1777607347 | 2.78° C | 58% | 1013.3 hPa | 0 mm | - | 0 W/m² | - |
| 1777607043 | 2.78° C | 59% | 1013.6 hPa | 0 mm | - | 0 W/m² | - |
| 1777606738 | 2.78° C | 59% | 1013.4 hPa | 0 mm | - | 0 W/m² | - |
| 1777606433 | 3.33° C | 57% | 1013.5 hPa | 0 mm | - | 0 W/m² | - |
| 1777606128 | 2.78° C | 58% | 1013.4 hPa | 0 mm | - | 0 W/m² | - |
| 1777605826 | 3.33° C | 59% | 1013 hPa | 0 mm | - | 0 W/m² | - |
| 1777605525 | 2.78° C | 59% | 1013.4 hPa | 0 mm | - | 0 W/m² | - |
| 1777605220 | 2.22° C | 62% | 1013.1 hPa | 0 mm | - | 0 W/m² | - |
| 1777604917 | 3.33° C | 58% | 1012.9 hPa | 0 mm | - | 0 W/m² | - |
| 1777604612 | 5° C | 47% | 1013 hPa | 0 mm | - | 0 W/m² | - |
| 1777604309 | 5° C | 45% | 1012.7 hPa | 0 mm | - | 0 W/m² | - |
| 1777604004 | 5.56° C | 49% | 1012.5 hPa | 0 mm | - | 0 W/m² | - |
| 1777603701 | 5° C | 49% | 1012.7 hPa | 0 mm | - | 0 W/m² | - |
| 1777603398 | 4.44° C | 57% | 1012.5 hPa | 0 mm | - | 0 W/m² | - |
| 1777603094 | 5.56° C | 53% | 1012.8 hPa | 0 mm | - | 0 W/m² | - |
| 1777602793 | 6.67° C | 46% | 1012.4 hPa | 0 mm | - | 1 W/m² | - |
| 1777602489 | 6.11° C | 49% | 1012.4 hPa | 0 mm | - | 1 W/m² | - |
| 1777602185 | 6.67° C | 47% | 1012.7 hPa | 0 mm | - | 4 W/m² | - |
| 1777601881 | 7.78° C | 46% | 1012.4 hPa | 0 mm | - | 6 W/m² | - |
| 1777601576 | 8.33° C | 40% | 1012.4 hPa | 0 mm | - | 9 W/m² | - |
| 1777601271 | 8.89° C | 39% | 1012.1 hPa | 0 mm | - | 13 W/m² | - |
| 1777600969 | 9.44° C | 39% | 1012.1 hPa | 0 mm | - | 15 W/m² | - |
| 1777600665 | 10° C | 36% | 1012.4 hPa | 0 mm | - | 18 W/m² | - |
| 1777586101 | 11.67° C | 34% | 1012.7 hPa | 0 mm | - | 615 W/m² | - |
* Rain latest hour (hover to see other rain measurements)
** Current wind speed in m/s (hover to see current wind gust speed)